Stündliche Wetter Bolshie Peksely

Heute, 26 Januar, Dienstag

Zeit Temperatur Niederschläge Wind Luftdruck Luftfeuchtigkeit
00:00 -3°C° 0 mm 4 m/S 750 mmHg 93%
01:00 -3°C° 0.1 mm 4 m/S 750 mmHg 94%
02:00 -3°C° 0.1 mm 4 m/S 749 mmHg 94%
03:00 -3°C° 0.1 mm 4 m/S 749 mmHg 94%
04:00 -3°C° 0 mm 4 m/S 749 mmHg 93%
05:00 -2°C° 0 mm 5 m/S 749 mmHg 93%
06:00 -2°C° 0 mm 5 m/S 748 mmHg 93%
07:00 -2°C° 0 mm 5 m/S 748 mmHg 93%
08:00 -2°C° 0 mm 5 m/S 748 mmHg 93%
09:00 -3°C° 0 mm 6 m/S 748 mmHg 93%
10:00 -2°C° 0 mm 6 m/S 747 mmHg 92%
11:00 -2°C° 0 mm 6 m/S 747 mmHg 92%
12:00 -2°C° 0 mm 7 m/S 747 mmHg 92%
13:00 -2°C° 0.2 mm 6 m/S 746 mmHg 93%
14:00 -2°C° 0.2 mm 6 m/S 746 mmHg 95%
15:00 -3°C° 0.2 mm 6 m/S 745 mmHg 97%
16:00 -2°C° 0.1 mm 6 m/S 745 mmHg 97%
17:00 -2°C° 0.1 mm 6 m/S 746 mmHg 97%
18:00 -2°C° 0.1 mm 6 m/S 746 mmHg 97%
19:00 -2°C° 0 mm 6 m/S 746 mmHg 95%
20:00 -2°C° 0 mm 6 m/S 746 mmHg 93%
21:00 -1°C° 0 mm 5 m/S 746 mmHg 90%
22:00 -1°C° 0 mm 5 m/S 746 mmHg 91%
23:00 -1°C° 0 mm 5 m/S 746 mmHg 91%

Morgen, 27 Januar, Mittwoch

Zeit Temperatur Niederschläge Wind Luftdruck Luftfeuchtigkeit
00:00 -2°C° 0 mm 5 m/S 746 mmHg 91%
01:00 -3°C° 0.3 mm 6 m/S 746 mmHg 93%
02:00 -3°C° 0.3 mm 6 m/S 745 mmHg 95%
03:00 -3°C° 0.3 mm 6 m/S 745 mmHg 97%
04:00 -2°C° 0.8 mm 7 m/S 744 mmHg 97%
05:00 -2°C° 0.8 mm 7 m/S 744 mmHg 97%
06:00 -1°C° 0.8 mm 7 m/S 743 mmHg 98%
07:00 -1°C° 0.6 mm 7 m/S 744 mmHg 97%
08:00 -1°C° 0.6 mm 7 m/S 744 mmHg 97%
09:00 0°C° 0.6 mm 7 m/S 744 mmHg 97%
10:00 -1°C° 0.2 mm 6 m/S 744 mmHg 97%
11:00 -1°C° 0.2 mm 6 m/S 744 mmHg 97%
12:00 -1°C° 0.2 mm 6 m/S 745 mmHg 97%
13:00 0°C° 0 mm 5 m/S 745 mmHg 96%
14:00 0°C° 0 mm 5 m/S 745 mmHg 96%
15:00 0°C° 0 mm 5 m/S 744 mmHg 96%
16:00 -1°C° 0 mm 4 m/S 745 mmHg 96%
17:00 -1°C° 0 mm 4 m/S 745 mmHg 96%
18:00 -1°C° 0 mm 4 m/S 745 mmHg 96%
19:00 -1°C° 0 mm 4 m/S 745 mmHg 96%
20:00 0°C° 0 mm 3 m/S 745 mmHg 96%
21:00 0°C° 0 mm 3 m/S 745 mmHg 97%
22:00 0°C° 0.1 mm 3 m/S 745 mmHg 97%
23:00 0°C° 0.1 mm 3 m/S 745 mmHg 96%

übermorgen, 28 Januar, Donnerstag

Zeit Temperatur Niederschläge Wind Luftdruck Luftfeuchtigkeit
00:00 0°C° 0.1 mm 3 m/S 746 mmHg 96%
01:00 -1°C° 0.1 mm 3 m/S 746 mmHg 96%
02:00 -1°C° 0.1 mm 2 m/S 745 mmHg 96%
03:00 -1°C° 0.1 mm 2 m/S 745 mmHg 96%
04:00 -1°C° 0.1 mm 2 m/S 745 mmHg 97%
05:00 -1°C° 0.1 mm 2 m/S 745 mmHg 97%
06:00 -1°C° 0.1 mm 2 m/S 745 mmHg 97%
07:00 -1°C° 0 mm 2 m/S 745 mmHg 97%
08:00 -1°C° 0 mm 3 m/S 745 mmHg 96%
09:00 -1°C° 0 mm 3 m/S 745 mmHg 96%
10:00 -1°C° 0.2 mm 3 m/S 745 mmHg 95%
11:00 -1°C° 0.2 mm 3 m/S 745 mmHg 95%
12:00 -1°C° 0.2 mm 3 m/S 745 mmHg 94%
13:00 -1°C° 0.1 mm 3 m/S 745 mmHg 94%
14:00 -1°C° 0.1 mm 3 m/S 745 mmHg 93%
15:00 -1°C° 0.1 mm 3 m/S 744 mmHg 93%
16:00 -2°C° 0 mm 3 m/S 744 mmHg 93%
17:00 -2°C° 0 mm 3 m/S 744 mmHg 93%
18:00 -2°C° 0 mm 3 m/S 744 mmHg 93%
19:00 -2°C° 0 mm 3 m/S 744 mmHg 92%
20:00 -2°C° 0 mm 3 m/S 744 mmHg 92%
21:00 -4°C° 0 mm 4 m/S 744 mmHg 92%
22:00 -4°C° 0 mm 3 m/S 744 mmHg 92%
23:00 -4°C° 0 mm 3 m/S 744 mmHg 92%

29 Januar, Freitag

Zeit Temperatur Niederschläge Wind Luftdruck Luftfeuchtigkeit
00:00 -4°C° 0 mm 3 m/S 744 mmHg 92%
01:00 -4°C° 0 mm 3 m/S 744 mmHg 93%
02:00 -4°C° 0 mm 3 m/S 743 mmHg 93%
03:00 -4°C° 0 mm 3 m/S 743 mmHg 93%
04:00 -4°C° 0.2 mm 3 m/S 742 mmHg 94%
05:00 -4°C° 0.2 mm 3 m/S 742 mmHg 95%
06:00 -4°C° 0.2 mm 3 m/S 741 mmHg 95%
07:00 -4°C° 0.7 mm 3 m/S 741 mmHg 95%
08:00 -5°C° 0.7 mm 4 m/S 741 mmHg 95%
09:00 -5°C° 0.7 mm 4 m/S 740 mmHg 95%
10:00 -5°C° 0.5 mm 4 m/S 740 mmHg 94%
11:00 -5°C° 0.5 mm 4 m/S 739 mmHg 93%
12:00 -4°C° 0.5 mm 4 m/S 739 mmHg 92%
13:00 -4°C° 0.4 mm 4 m/S 738 mmHg 93%
14:00 -4°C° 0.4 mm 4 m/S 738 mmHg 93%
15:00 -4°C° 0.4 mm 4 m/S 737 mmHg 94%
16:00 -5°C° 0.5 mm 4 m/S 737 mmHg 94%
17:00 -5°C° 0.5 mm 4 m/S 737 mmHg 95%
18:00 -5°C° 0.5 mm 4 m/S 737 mmHg 95%
19:00 -5°C° 0.2 mm 4 m/S 736 mmHg 95%
20:00 -4°C° 0.2 mm 4 m/S 736 mmHg 95%
21:00 -4°C° 0.2 mm 4 m/S 735 mmHg 95%
22:00 -4°C° 0 mm 4 m/S 735 mmHg 94%
23:00 -3°C° 0 mm 4 m/S 735 mmHg 93%

30 Januar, Samstag

Zeit Temperatur Niederschläge Wind Luftdruck Luftfeuchtigkeit
00:00 -3°C° 0 mm 4 m/S 735 mmHg 92%
01:00 -3°C° 0.2 mm 4 m/S 735 mmHg 92%
02:00 -4°C° 0.2 mm 4 m/S 734 mmHg 92%
03:00 -4°C° 0.2 mm 4 m/S 734 mmHg 93%
04:00 -4°C° 0.3 mm 4 m/S 734 mmHg 94%
05:00 -4°C° 0.3 mm 4 m/S 734 mmHg 95%
06:00 -4°C° 0.3 mm 3 m/S 734 mmHg 96%
07:00 -5°C° 0.2 mm 3 m/S 734 mmHg 94%
08:00 -6°C° 0.2 mm 3 m/S 734 mmHg 93%
09:00 -7°C° 0.2 mm 3 m/S 734 mmHg 91%
10:00 -6°C° 0 mm 3 m/S 734 mmHg 91%
11:00 -4°C° 0 mm 2 m/S 734 mmHg 92%
12:00 -4°C° 0 mm 2 m/S 734 mmHg 92%
13:00 -5°C° 0.2 mm 3 m/S 734 mmHg 90%
14:00 -4°C° 0.2 mm 4 m/S 734 mmHg 88%
15:00 -4°C° 0.2 mm 4 m/S 735 mmHg 85%
16:00 -5°C° 0 mm 4 m/S 735 mmHg 88%
17:00 -7°C° 0 mm 4 m/S 736 mmHg 90%
18:00 -8°C° 0 mm 4 m/S 736 mmHg 93%
19:00 -7°C° 0 mm 3 m/S 736 mmHg 93%
20:00 -7°C° 0 mm 3 m/S 736 mmHg 93%
21:00 -8°C° 0 mm 3 m/S 737 mmHg 93%
22:00 -8°C° 0 mm 3 m/S 737 mmHg 93%
23:00 -7°C° 0 mm 2 m/S 737 mmHg 94%

31 Januar, Sonntag

Zeit Temperatur Niederschläge Wind Luftdruck Luftfeuchtigkeit
00:00 -7°C° 0 mm 2 m/S 737 mmHg 94%
01:00 -7°C° 0 mm 2 m/S 737 mmHg 94%
02:00 -7°C° 0 mm 2 m/S 737 mmHg 94%
03:00 -7°C° 0 mm 2 m/S 737 mmHg 93%
04:00 -7°C° 0 mm 2 m/S 736 mmHg 94%
05:00 -7°C° 0 mm 2 m/S 736 mmHg 94%
06:00 -6°C° 0 mm 1 m/S 736 mmHg 94%
07:00 -7°C° 0 mm 2 m/S 736 mmHg 94%
08:00 -7°C° 0 mm 2 m/S 737 mmHg 94%
09:00 -8°C° 0 mm 2 m/S 737 mmHg 94%
10:00 -8°C° 0 mm 3 m/S 737 mmHg 92%
11:00 -7°C° 0 mm 3 m/S 737 mmHg 90%
12:00 -6°C° 0 mm 3 m/S 738 mmHg 88%
13:00 -6°C° 0 mm 3 m/S 738 mmHg 89%
14:00 -6°C° 0 mm 3 m/S 738 mmHg 89%
15:00 -6°C° 0 mm 3 m/S 738 mmHg 90%
16:00 -7°C° 0 mm 3 m/S 738 mmHg 92%
17:00 -9°C° 0 mm 3 m/S 739 mmHg 93%
18:00 -10°C° 0 mm 3 m/S 739 mmHg 94%
19:00 -10°C° 0 mm 3 m/S 739 mmHg 94%
20:00 -12°C° 0 mm 3 m/S 740 mmHg 94%
21:00 -12°C° 0 mm 3 m/S 740 mmHg 93%
22:00 -12°C° 0 mm 3 m/S 740 mmHg 93%
23:00 -12°C° 0 mm 3 m/S 740 mmHg 94%
Mehr zeigen

Wir brauchen deine Erlaubnis

Meteoprog und unser Service Anbieter werden persönliche Daten aufbewahren, so wie Cookies, Geräte Bezeichnung oder ähnliche Technologien von deinem Gerät und Prozess, so wie Persönliche Daten Inhalte und Werbungen, genauso wie social Media und den Verkehr zu analysieren.

  • Aufbewahrung und/oder Zugang zu deiner Geräte Informationen.

    Cookies, Geräte Bezeichnung oder andere Informationen, können aufbewahrt oder Zugang zu deinem Gerät erhalten, für den Grund, der oben angegeben wird.

  • Personalisierte Werbung und Inhalte, Messungen, Einblick in das Publikum und Produkt Entwicklung.

    Werbungen und Inhalte können personalisiert werden, basierend auf ein Profil. Mehr Daten können besser personalisierte Werbungen und Inhalte hinzufügen. Werbung und Inhalte können gezeigt und gemessen werden. Einblicke über das Publikum, welche die Werbung gesehen haben und den Inhalt, können abgeleitet werden. So wie Daten können genutzt werden, um es zu verbessern oder die Benutzer Erfahrung zu verbessern das System und die Software.

Wenn du “Ich stimme zu” klickst, erlaubst du uns, die Cookies zu benutzen die Geräte Bezeichnung, den Web oder ähnliche Technologien zu benutzen. Deine Settings, können in deinem Gerät bei deinem Browser geändert werden.

Für den bestimmten Zweck, berechtigten Interessen beruhen darauf, mehr als auf den Inhalt. Du kannst mehr darüber in unseren Privaten und Cookie Politik lesen.